HST

Last updated on Sat Sep 05 2026 00:02:08 GMT+0000 (Coordinated Universal Time)

1 20580U 90037B 26247.46497126 .00003585 00000+0 10696-3 0 9999 2 20580 28.4724 258.4042 0001482 305.6276 54.4182 15.31550044800733
UTC large
Height (km)
Speed (km/s)
/
Latitude / Longitude
Inclination (degrees)
Orbital Period (minutes)
Azimuth
Elevation
Range (km)
Doppler Factor

Next 0 passes for location: London (51.5072 / 0.1276)

No passes found over London.
HST